TANYUSHA 2 (42912 NORAD) Tracking and Keplerian Element Data

This shows tracking and keplerian element data for the satellite.

Feedback or suggestion? Click here.




ElementValue
Catalog42912
NameTANYUSHA 2
Epoch Orbit8992
Epoch Day73.91507674
Epoch Year2019
RAAN62.9615
Inclination51.6363
Eccentricity0.0003799
Argument of Perigee123.3227
Mean Anonmoly325.3648
Mean Motion15.78017644
Decay Rate0.00040794
L11 42912U 98067NB 19073.91507674 .00040794 00000-0 23759-3 0 9990
L22 42912 51.6363 62.9615 0003799 123.3227 325.3648 15.78017644 89923

Live tracking and technical data element details for TANYUSHA 2 (NORAD 42912). TANYUSHA 2 can be tracked NOW for your location showing map with azimuth and elevation plus other details from your city location.

Track the satellite on the map from your city or location and see movement details for azimuth, elevation, latitude, longitude, range, height, and movement on the map or in text.







IsCatalogInMostPopularTable: catalog: 42912, numindb: 204
Update: records affected: 1



GetName: 42912 TANYUSHA 2

Hit Count: updated at: Thu, 21 Mar 2019 02:16:02 GMT